Location: Izdebno
(52.6670°N, 16.2170°E)
Time: 13:16:23
(UTC+02:00)

Vanguard 2 - Pass Details

Date: 02 February 2023
Orbit: 553 x 2927 km, 32.9° (Epoch: 26 March)

Event Time Altitude Azimuth Distance (km) Brightness Sun altitude
Rises 21:38:58 0° 217° (SW) 5,574 11.9 -43.6°
Reaches altitude 10° 21:43:01 10° 206° (SSW) 4,890 11.5 -44.1°
Enters shadow 21:43:52 12° 204° (SSW) 4,770 11.4 -44.2°
Maximum altitude 21:54:41 29° 155° (SSE) 4,168 - -45.4°
Drops below altitude 10° 22:08:17 10° 105° (ESE) 5,754 - -46.9°
Sets 22:13:34 0° 96° (E) 6,694 - -47.5°
